DW7061 Weather Reports


Display with metric or nautical units.
time (UTC)temp
F
wind
direction
speed
MPH
gust
MPH
rain 1hr
in
rain 24hr
in
rain mn
in
humidity
%
barometer
mb
20260503032517 40 0.0 0.0 0.00 0.00 0.00 67 1010.0
20260503031516 40 0.0 0.0 0.00 0.00 0.00 65 1009.9
20260503030516 41 0.0 1.0 0.00 0.00 0.00 64 1010.1
20260503025517 41 0.0 0.0 0.00 0.00 0.00 67 1010.1
20260503024518 42 0.0 1.0 0.00 0.00 0.00 62 1010.1
20260503023516 42 0.0 1.0 0.00 0.00 0.00 60 1010.1
20260503022516 42 0.0 1.0 0.00 0.00 0.00 59 1010.0
20260503021517 43 0.0 1.0 0.00 0.00 0.00 59 1010.1
20260503020516 43 0.0 1.0 0.00 0.00 0.00 57 1010.2
20260503015516 43 0.0 2.0 0.00 0.00 0.00 58 1010.2
20260503014516 43 0.0 3.0 0.00 0.00 0.00 58 1010.3
20260503013517 43 0.0 2.0 0.00 0.00 0.00 57 1010.3
20260503012536 44 0.0 3.0 0.00 0.00 0.00 58 1010.3
20260503011516 44 0.0 1.0 0.00 0.00 0.00 59 1010.3
20260503010516 45 0.0 0.0 0.00 0.00 0.00 58 1010.1
20260503005517 45 0.0 1.0 0.00 0.00 0.00 57 1010.1
20260503004516 45 0.0 1.0 0.00 0.00 0.00 54 1009.9
20260503003516 46 248 1.0 3.0 0.00 0.00 0.00 53 1009.8
20260503002517 46 248 1.0 4.0 0.00 0.00 0.00 55 1009.7
20260503001516 46 0.0 3.0 0.00 0.00 0.00 55 1009.6
20260503000516 46 0.0 1.0 0.00 0.00 0.00 56 1009.4
20260502235516 47 0.0 1.0 0.00 0.00 0.00 59 1009.4
20260502234516 47 0.0 1.0 0.00 0.00 0.00 60 1009.3
20260502233516 48 0.0 1.0 0.00 0.00 0.00 59 1009.2
20260502232516 49 0.0 2.0 0.00 0.00 0.00 59 1009.1
20260502231519 49 0.0 1.0 0.00 0.00 0.00 60 1009.0
20260502230516 49 0.0 3.0 0.00 0.00 0.00 60 1008.9
20260502225516 49 0.0 0.0 0.00 0.00 0.00 64 1008.8
20260502224516 49 0.0 1.0 0.00 0.00 0.00 63 1008.7
20260502224016 50 0.0 1.0 0.00 0.00 0.00 65 1008.8
20260502223017 50 0.0 0.0 0.00 0.00 0.00 67 1008.7
20260502222016 50 0.0 1.0 0.00 0.00 0.00 66 1008.6
20260502221016 51 0.0 2.0 0.00 0.00 0.00 68 1008.6
20260502220016 51 0.0 0.0 0.00 0.00 0.00 67 1008.6
20260502215017 51 0.0 1.0 0.00 0.00 0.00 69 1008.5
20260502214016 51 0.0 2.0 0.00 0.00 0.00 70 1008.6
20260502213036 51 0.0 1.0 0.00 0.00 0.00 71 1008.5
20260502212036 51 0.0 1.0 0.00 0.00 0.00 69 1008.4
20260502211017 51 0.0 2.0 0.00 0.00 0.00 71 1008.4
20260502210016 51 0.0 1.0 0.00 0.00 0.00 72 1008.5
20260502205016 51 270 1.0 3.0 0.00 0.00 0.00 71 1008.5
20260502204017 51 248 1.0 3.0 0.00 0.00 0.00 78 1008.5
20260502203036 50 0.0 0.0 0.00 0.00 0.00 82 1008.6
20260502202017 50 248 1.0 3.0 0.00 0.00 0.00 79 1008.6
20260502201016 51 0.0 2.0 0.00 0.00 0.00 82 1008.7
20260502200016 50 0.0 2.0 0.00 0.00 0.00 83 1008.8
20260502195016 50 0.0 2.0 0.00 0.00 0.00 84 1008.8
20260502194016 50 0.0 2.0 0.00 0.00 0.00 84 1008.8
20260502193016 49 0.0 2.0 0.00 0.00 0.00 87 1009.0
20260502192016 48 0.0 0.0 0.00 0.00 0.00 91 1009.1
20260502191016 48 0.0 0.0 0.00 0.00 0.00 90 1009.1
20260502190017 48 0.0 0.0 0.00 0.00 0.00 88 1009.2
20260502185016 48 0.0 1.0 0.00 0.00 0.00 89 1009.3
20260502184016 48 0.0 2.0 0.00 0.00 0.00 89 1009.3
20260502183037 48 0.0 1.0 0.00 0.00 0.00 91 1009.2
20260502182016 47 0.0 0.0 0.00 0.00 0.00 90 1009.3
20260502181016 48 0.0 1.0 0.00 0.00 0.00 90 1009.4
20260502164016 47 0.0 1.0 0.00 0.00 0.00 94 1009.6
20260502163057 46 0.0 0.0 0.00 0.00 0.00 93 1009.9
20260502162016 46 0.0 3.0 0.00 0.00 0.00 93 1010.0
20260502161016 45 0.0 1.0 0.00 0.00 0.00 93 1009.8
20260502152017 51 248 1.0 5.0 0.00 0.00 0.00 76 1010.1
20260502151016 50 248 1.0 2.0 0.00 0.00 0.00 82 1010.1
20260502123016 44 0.0 0.0 0.00 0.00 0.00 95 1010.5
20260502122015 44 0.0 0.0 0.00 0.00 0.00 95 1010.6
20260502121015 43 0.0 2.0 0.00 0.00 0.00 95 1010.5
20260502115017 43 0.0 0.0 0.00 0.00 0.00 95 1010.8
20260502114017 43 0.0 0.0 0.00 0.00 0.00 95 1010.9
20260502113018 43 0.0 0.0 0.00 0.00 0.00 95 1010.9
20260502112038 43 0.0 0.0 0.00 0.00 0.00 95 1010.8
20260502111018 43 0.0 0.0 0.00 0.00 0.00 95 1010.9
20260502110058 42 0.0 0.0 0.00 0.00 0.00 95 1010.6
20260502105018 42 0.0 0.0 0.00 0.00 0.00 95 1010.6
20260502104018 42 0.0 0.0 0.00 0.00 0.00 95 1010.9
20260502103017 42 0.0 0.0 0.00 0.00 0.00 95 1010.9
20260502102018 42 0.0 0.0 0.00 0.00 0.00 94 1010.5
20260502101017 42 0.0 0.0 0.00 0.00 0.00 94 1010.1
20260502091058 42 0.0 0.0 0.00 0.00 0.00 94 1010.5
20260502071039 43 0.0 0.0 0.00 0.00 0.00 89 1010.5
20260502070018 44 0.0 0.0 0.00 0.00 0.00 85 1010.5
20260502065017 44 0.0 0.0 0.00 0.00 0.00 82 1010.5
20260502064017 44 0.0 0.0 0.00 0.00 0.00 83 1010.4
20260502063016 43 0.0 0.0 0.00 0.00 0.00 85 1010.3
20260502062038 43 0.0 0.0 0.00 0.00 0.00 86 1010.4
20260502061018 43 0.0 0.0 0.00 0.00 0.00 87 1010.4
20260502060017 44 0.0 0.0 0.00 0.00 0.00 88 1010.7
20260502055017 44 0.0 0.0 0.00 0.00 0.00 86 1010.7
20260502054017 46 0.0 0.0 0.00 0.00 0.00 81 1010.9
20260502053018 47 0.0 2.0 0.00 0.00 0.00 74 1011.2
20260502052018 48 0.0 0.0 0.00 0.00 0.00 63 1011.3
20260502051017 48 0.0 0.0 0.00 0.00 0.00 59 1010.9
20260502050017 48 0.0 0.0 0.00 0.00 0.00 59 1010.8
20260502045018 48 0.0 0.0 0.00 0.00 0.00 58 1010.6
20260502044018 48 0.0 0.0 0.00 0.00 0.00 56 1010.8
20260502043017 48 0.0 0.0 0.00 0.00 0.00 56 1010.7
20260502042017 48 0.0 0.0 0.00 0.00 0.00 57 1010.7
20260502041016 48 0.0 0.0 0.00 0.00 0.00 57 1010.6
20260502040039 48 0.0 0.0 0.00 0.00 0.00 56 1010.8
20260502035016 48 0.0 0.0 0.00 0.00 0.00 56 1010.7
20260502034016 48 0.0 0.0 0.00 0.00 0.00 56 1010.6
20260502033016 49 0.0 0.0 0.00 0.00 0.00 56 1010.8